This is the latest recevied weather packets stored in our database for station/object K8JMX-13. If no packets are shown the sender has not sent any weather packets the latest 10 day(s).
| Time | Temp. | Humidity | Pressure | Rain* | Wind** | Luminosity | Snow |
|---|---|---|---|---|---|---|---|
| 1777671556 | 9.44° C | 67% | 1013.8 hPa | 0 mm | - | 428 W/m² | - |
| 1777671254 | 9.44° C | 65% | 1013.7 hPa | 0 mm | - | 130 W/m² | - |
| 1777670949 | 10° C | 65% | 1013.5 hPa | 0 mm | - | 179 W/m² | - |
| 1777670646 | 9.44° C | 64% | 1013.5 hPa | 0 mm | - | 137 W/m² | - |
| 1777670343 | 8.89° C | 67% | 1013.2 hPa | 0 mm | - | 244 W/m² | - |
| 1777670040 | 9.44° C | 67% | 1013.2 hPa | 0 mm | - | 178 W/m² | - |
| 1777669738 | 9.44° C | 68% | 1013 hPa | 0 mm | - | 218 W/m² | - |
| 1777669434 | 8.33° C | 69% | 1013.2 hPa | 0 mm | - | 259 W/m² | - |
| 1777669131 | 8.33° C | 70% | 1013.1 hPa | 0 mm | - | 151 W/m² | - |
| 1777668828 | 8.33° C | 70% | 1013 hPa | 0 mm | - | 70 W/m² | - |
| 1777668525 | 8.33° C | 70% | 1013 hPa | 0 mm | - | 97 W/m² | - |
| 1777668222 | 8.33° C | 70% | 1012.8 hPa | 0 mm | - | 58 W/m² | - |
| 1777667917 | 8.89° C | 70% | 1012.8 hPa | 0 mm | - | 37 W/m² | - |
| 1777667615 | 8.89° C | 70% | 1012.9 hPa | 0 mm | - | 55 W/m² | - |
| 1777667311 | 8.89° C | 69% | 1012.8 hPa | 0 mm | - | 129 W/m² | - |
| 1777667008 | 8.89° C | 70% | 1012.7 hPa | 0 mm | - | 192 W/m² | - |
| 1777666705 | 8.89° C | 68% | 1012.8 hPa | 0 mm | - | 138 W/m² | - |
| 1777666402 | 9.44° C | 68% | 1012.8 hPa | 0 mm | - | 148 W/m² | - |
| 1777666094 | 8.89° C | 69% | 1012.8 hPa | 0 mm | - | 693 W/m² | - |
| 1777665791 | 8.89° C | 71% | 1012.8 hPa | 0 mm | - | 224 W/m² | - |
| 1777665489 | 8.89° C | 70% | 1012.9 hPa | 0 mm | - | 159 W/m² | - |
| 1777665184 | 8.89° C | 69% | 1012.8 hPa | 0 mm | - | 83 W/m² | - |
| 1777664880 | 8.89° C | 69% | 1013 hPa | 0 mm | - | 108 W/m² | - |
| 1777664576 | 8.89° C | 69% | 1012.8 hPa | 0 mm | - | 75 W/m² | - |
| 1777664273 | 9.44° C | 68% | 1012.7 hPa | 0 mm | - | 109 W/m² | - |
* Rain latest hour (hover to see other rain measurements)
** Current wind speed in m/s (hover to see current wind gust speed)